This demonstration page uses our WeatherBlox Daily Observations layout. Learn more.

40.92945, -100.16068

Hourly Observations for August 19, 2017

Temp ( °F °C ) Dew Point ( °F °C ) Humidity (%) Winds ( mph kmh ) Pressure ( in mb ) Visibility ( mi km ) Precip ( " mm )
12:15 am 00:15 Clear 65 18.3 60 15.7 85 85 Calm 29.97 1015 10 16.09344 0 0
12:35 am 00:35 Clear 64 18 60 15.6 86 86 Calm 29.97 1015 10 16.09344 0 0
12:55 am 00:55 Clear 64 17.5 60 15.5 88 88 Calm 29.97 1015 10 16.09344 0 0
1:15 am 01:15 Clear 64 17.7 60 15.4 86 86 Calm 29.97 1015 10 16.09344 0 0
1:35 am 01:35 Clear 63 17.1 59 15.2 89 89 Calm 29.97 1015 10 16.09344 0 0
1:55 am 01:55 Clear 62 16.9 59 14.9 88 88 Calm 29.97 1015 10 16.09344 0 0
2:15 am 02:15 Clear 61 16.1 59 14.8 92 92 Calm 30 1016 10 16.09344 0 0
2:35 am 02:35 Clear 61 16 58 14.7 92 92 Calm 30 1016 10 16.09344 0 0
2:55 am 02:55 Clear 61 16 59 14.9 93 93 Calm 30 1016 10 16.09344 0 0
3:15 am 03:15 Clear 59 15.2 57 14 93 93 Calm 30 1016 10 16.09344 0 0
3:35 am 03:35 Clear 59 15 57 13.7 92 92 Calm 30 1016 10 16.09344 0 0
3:55 am 03:55 Clear 59 15 57 13.9 93 93 Calm 30 1016 7 11.265408 0 0
4:15 am 04:15 Clear 58 14.7 56 13.6 93 93 Calm 30 1016 10 16.09344 0 0
4:35 am 04:35 Clear 58 14.7 57 13.7 94 94 Calm 30 1016 7 11.265408 0 0
4:55 am 04:55 Clear 59 14.9 57 13.8 93 93 Calm 29.97 1015 10 16.09344 0 0
5:15 am 05:15 Clear with Mist and Fog 58 14.5 56 13.3 93 93 Calm 29.97 1015 5 8.04672 0 0
5:35 am 05:35 Clear 60 15.6 58 14.7 94 94 Calm 29.97 1015 7 11.265408 0 0
5:55 am 05:55 Clear 60 15.5 58 14.5 94 94 SE 3 6 29.97 1015 7 11.265408 0 0
6:15 am 06:15 Clear 61 16.2 60 15.3 94 94 SSE 6 9 29.97 1015 7 11.265408 0 0
6:35 am 06:35 Clear 60 15.4 57 14 91 91 SSE 3 6 29.97 1015 7 11.265408 0 0
6:55 am 06:55 Sunny 60 15.3 57 14.1 93 93 SSE 3 6 29.97 1015 7 11.265408 0 0
7:15 am 07:15 Sunny 59 15.1 57 13.7 91 91 Calm 30 1016 7 11.265408 0 0
7:35 am 07:35 Sunny 60 15.8 58 14.5 92 92 Calm 29.97 1015 7 11.265408 0 0
7:55 am 07:55 Sunny 63 17.1 60 15.5 90 90 SE 3 6 29.94 1014 10 16.09344 0 0
8:15 am 08:15 Sunny 65 18.5 60 15.6 83 83 Calm 29.94 1014 10 16.09344 0 0
8:35 am 08:35 Sunny 66 19.1 61 16.1 83 83 SSE 6 9 29.94 1014 10 16.09344 0 0
8:55 am 08:55 Sunny 68 19.8 62 16.6 82 82 SSE 6 9 29.94 1014 10 16.09344 0 0
9:15 am 09:15 Sunny 69 20.8 63 17.2 80 80 SE 6 9 29.88 1012 10 16.09344 0 0
9:35 am 09:35 Sunny 72 22 64 17.8 77 77 ESE 6 9 29.88 1012 10 16.09344 0 0
9:55 am 09:55 Sunny 73 23 64 17.5 71 71 SE 7 11 29.88 1012 10 16.09344 0 0
10:15 am 10:15 Sunny 75 23.9 65 18.4 71 71 SE 9 15 29.85 1011 10 16.09344 0 0
10:35 am 10:35 Sunny 76 24.6 65 18.5 69 69 SSE 9 15 29.85 1011 10 16.09344 0 0
10:55 am 10:55 Sunny 78 25.5 67 19.2 68 68 SSE 9 15 29.85 1011 10 16.09344 0 0
11:15 am 11:15 Sunny 80 26.6 67 19.5 65 65 S 10 17 29.83 1010 10 16.09344 0 0
11:35 am 11:35 Sunny 81 27.4 67 19.3 61 61 S 10 17 29.83 1010 10 16.09344 0 0
11:55 am 11:55 Sunny 82 28 67 19.5 60 60 S 12 19 29.83 1010 10 16.09344 0 0
12:15 pm 12:15 Sunny 83 28.5 67 19.4 58 58 S 15 24 29.83 1010 10 16.09344 0 0
12:35 pm 12:35 Sunny 84 28.7 67 19.7 58 58 S 16 26 29.8 1009 10 16.09344 0 0
12:55 pm 12:55 Sunny 83 28.6 68 20.1 60 60 S 13 20 29.8 1009 10 16.09344 0 0
1:15 pm 13:15 Sunny 85 29.5 69 20.7 59 59 S 15 24 29.8 1009 10 16.09344 0 0
1:35 pm 13:35 Sunny 86 29.9 70 21 59 59 S 14 22 29.8 1009 10 16.09344 0 0
1:55 pm 13:55 Sunny 87 30.3 70 21.2 58 58 SSE 17 28 29.74 1007 10 16.09344 0 0
2:15 pm 14:15 Sunny 87 30.6 70 21 57 57 SSE 15 24 29.74 1007 10 16.09344 0 0
2:35 pm 14:35 Sunny 88 31 70 21.1 56 56 SSE 16 26 29.74 1007 10 16.09344 0 0
2:55 pm 14:55 Sunny 88 30.9 69 20.6 54 54 S 17 28 29.74 1007 10 16.09344 0 0
3:15 pm 15:15 Sunny 89 31.7 71 21.6 55 55 SSE 13 20 29.74 1007 10 16.09344 0 0
3:35 pm 15:35 Sunny 89 31.6 72 22 57 57 SSE 13 20 29.71 1006 10 16.09344 0 0
3:55 pm 15:55 Sunny 90 32.2 71 21.7 54 54 SSE 14 22 29.71 1006 10 16.09344 0 0
4:15 pm 16:15 Sunny 91 32.5 71 21.7 53 53 SSE 16 26 29.71 1006 10 16.09344 0 0
4:35 pm 16:35 Sunny 91 32.5 70 21.3 52 52 SSE 13 20 29.68 1005 10 16.09344 0 0
4:55 pm 16:55 Sunny 91 32.5 71 21.6 53 53 SE 15 24 29.68 1005 10 16.09344 0 0
5:15 pm 17:15 Sunny 91 32.6 71 21.8 53 53 SE 10 17 29.68 1005 10 16.09344 0 0
5:40 pm 17:40 Sunny 91 32.9 68 19.8 46 46 SSE 12 19 29.65 1004 10 16.09344 0 0
5:55 pm 17:55 Sunny 91 32.6 67 19.7 47 47 SSE 12 19 29.62 1003 10 16.09344 0 0
6:15 pm 18:15 Sunny 91 32.5 68 19.8 47 47 SSE 9 15 29.62 1003 10 16.09344 0 0
6:35 pm 18:35 Sunny 90 32.2 67 19.5 47 47 SSE 12 19 29.65 1004 10 16.09344 0 0
6:55 pm 18:55 Sunny 86 30.1 67 19.5 53 53 SSE 12 19 29.65 1004 10 16.09344 0 0
7:15 pm 19:15 Sunny 84 29.1 68 20 58 58 SSE 8 13 29.62 1003 10 16.09344 0 0
7:35 pm 19:35 Sunny 84 29 67 19.6 57 57 SE 8 13 29.62 1003 10 16.09344 0 0
7:55 pm 19:55 Sunny 84 28.7 66 19.1 56 56 SE 8 13 29.62 1003 10 16.09344 0 0
8:15 pm 20:15 Sunny 82 28 65 18.6 57 57 SE 10 17 29.65 1004 10 16.09344 0 0
8:35 pm 20:35 Clear 82 27.5 65 18.3 57 57 SE 8 13 29.65 1004 10 16.09344 0 0
8:55 pm 20:55 Clear 80 26.6 64 18 59 59 SSE 9 15 29.68 1005 10 16.09344 0 0
9:15 pm 21:15 Clear 80 26.5 64 17.6 58 58 SE 8 13 29.68 1005 10 16.09344 0 0
9:35 pm 21:35 Clear 80 26.5 63 17.2 57 57 SSE 9 15 29.68 1005 10 16.09344 0 0
9:55 pm 21:55 Clear with Nearby Thunderstorms 78 25.7 63 17.2 59 59 SSE 9 15 29.71 1006 10 16.09344 0 0
10:15 pm 22:15 Clear 79 26 62 16.9 57 57 SE 8 13 29.71 1006 10 16.09344 0 0
10:35 pm 22:35 Clear 77 25 63 17.2 62 62 SE 9 15 29.74 1007 10 16.09344 0 0
10:55 pm 22:55 Clear 78 25.7 62 16.9 58 58 SSE 10 17 29.71 1006 10 16.09344 0 0
11:15 pm 23:15 Clear 77 25 62 16.7 60 60 SE 9 15 29.74 1007 10 16.09344 0 0
11:35 pm 23:35 Clear 74 23.6 63 17 67 67 SSE 8 13 29.74 1007 10 16.09344 0 0
11:55 pm 23:55 Clear 73 22.6 63 17.2 72 72 NE 14 22 29.77 1008 10 16.09344 0 0

Powered by AerisWeather